[[{"header":{"parameterUnit":"m.s-1","parameterCategory":1,"la1":30.2992,"la2":30.254,"lo1":-89.0895,"lo2":-89.0443,"dy":0.0025,"dx":0.0025,"nx":19,"ny":19,"refTime":"2026-04-21T09:00:00:Z","depth":0,"parameterNumber":2,"parameterNumberName":"U-component_of_WINDS"},"data":[0,0,0,-2.8448,-2.845,-2.8552,-2.8552,-2.8694,-2.8695,0,0,0,0,0,0,0,0,0,0,0,-2.8427,-2.8428,-2.8448,-2.8451,-2.8552,-2.8552,-2.8693,-2.8695,0,0,0,0,0,0,0,0,0,0,0,-2.8426,-2.8428,-2.8429,-2.8451,-2.8551,-2.8552,-2.8693,-2.8612,0,0,0,0,0,0,0,0,0,0,-2.8512,-2.8501,-2.8427,-2.8429,-2.8452,-2.8551,-2.8552,-2.8608,-2.8617,-2.8653,0,-2.8689,0,-2.8694,-2.8705,-2.8706,0,0,0,-2.8444,-2.8493,-2.8513,-2.8429,-2.8453,-2.8551,-2.8504,-2.8613,-2.8623,-2.8666,-2.8691,-2.8696,-2.8697,-2.8706,-2.8707,-2.894,-2.8942,0,0,-2.8438,-2.8449,-2.8506,-2.852,-2.8506,-2.8501,-2.8507,-2.8619,-2.8647,-2.8691,-2.8699,-2.8699,-2.8707,-2.8709,-2.8939,-2.8941,0,0,0,-2.8427,-2.8446,-2.8462,-2.8514,-2.8532,-2.8504,-2.8511,-2.8642,-2.8646,-2.87,-2.8701,-2.8708,-2.871,-2.8937,-2.894,-2.9019,0,0,0,-2.8423,-2.8439,-2.846,-2.8468,-2.853,-2.8588,-2.8532,-2.8638,-2.8651,-2.87,-2.8708,-2.8712,-2.8936,-2.8939,-2.9014,-2.9055,0,0,0,-2.8417,-2.8438,-2.8456,-2.8468,-2.8512,-2.8586,-2.8597,-2.8641,-2.8652,-2.8706,-2.8712,-2.8935,-2.8938,-2.9009,-2.9047,-2.9119,0,0,0,-2.8413,-2.8525,-2.8457,-2.8582,-2.8511,-2.8635,-2.8596,-2.8688,-2.8744,-2.8709,-2.8936,-2.8939,-2.9007,-2.9042,-2.9114,-2.9182,-2.9212,0,0,-2.856,-2.8543,-2.8615,-2.8558,-2.8696,-2.8619,-2.8769,-2.881,-2.8805,-2.8895,-2.8901,-2.9016,-2.9046,-2.9118,-2.9373,-2.9397,0,0,0,-2.8665,-2.8718,-2.8752,-2.8807,-2.8841,-2.8873,-2.889,-2.8905,-2.8982,-2.8854,-2.9061,-2.9079,-2.9121,-2.9153,-2.9173,-2.9207,-2.8955,-2.8954,-2.8954,-2.8888,-2.8876,-2.8995,-2.8995,-2.9049,-2.9065,-2.9107,-2.9129,-2.9101,-2.9151,-2.9177,-2.9334,-2.9372,-2.9386,-2.9423,-2.9212,-2.9213,-2.9213,-2.9213,-2.9102,-2.9173,-2.9134,-2.9235,-2.9221,-2.9305,-2.9325,-2.9303,-2.9378,-2.9313,-2.9349,-2.9277,-2.9413,-2.9444,-2.9219,-2.9218,-2.9217,-2.9217,-2.9216,-2.9246,-2.9278,-2.9295,-2.9372,-2.9433,-2.9429,-2.9504,-2.9488,-2.9474,-2.951,-2.9536,-2.9535,-2.9531,-2.9524,-2.9524,-2.9525,-2.9525,-2.9526,-2.9526,-2.9389,-2.9405,-2.947,-2.9516,-2.9549,-2.959,-2.9607,-2.9639,-2.967,-2.9652,-2.9653,-2.9619,-2.9428,-2.938,-2.9534,-2.9533,-2.9532,-2.9531,-2.953,-2.9609,-2.9557,-2.9658,-2.9691,-2.9743,-2.9804,-2.9783,-2.9849,-2.9872,-2.9909,-2.9869,-2.973,-2.9711,-2.9695,-2.9655,-2.9871,-2.9871,-2.9871,-2.9871,-2.973,-2.9719,-2.9819,-2.9872,-2.9923,-2.9915,-3.0028,-3.0043,-3.0049,-3.0063,-3.0029,-2.9975,-2.996,-2.995,-2.9929,-2.9891,-3.0162,-3.0162,-3.0163,-2.9865,-2.9858,-2.9958,-2.9964,-3.0004,-3.0038,-3.0144,-3.0206,-3.0202,-3.0174,-3.0073,-3.0061,-2.9973,-2.9946,-2.9915,-2.9882,-2.9813,0,0]},{"header":{"parameterUnit":"m.s-1","parameterCategory":1,"la1":30.2992,"la2":30.254,"lo1":-89.0895,"lo2":-89.0443,"dy":0.0025,"dx":0.0025,"nx":19,"ny":19,"refTime":"2026-04-21T09:00:00:Z","depth":0,"parameterNumber":3,"parameterNumberName":"V-component_of_WINDS"},"data":[0,0,0,0.6672,0.6671,0.6553,0.6552,0.6433,0.6432,0,0,0,0,0,0,0,0,0,0,0,0.6729,0.6729,0.6673,0.667,0.6553,0.6552,0.6433,0.6432,0,0,0,0,0,0,0,0,0,0,0,0.6729,0.6729,0.6729,0.667,0.6553,0.6552,0.6433,0.651,0,0,0,0,0,0,0,0,0,0,0.6618,0.6693,0.6729,0.6729,0.6669,0.6553,0.6552,0.6513,0.6505,0.65,0,0.6505,0,0.6467,0.6426,0.6426,0,0,0,0.6653,0.67,0.6649,0.6729,0.6669,0.6554,0.6601,0.6508,0.6499,0.649,0.6503,0.6497,0.6465,0.6426,0.6425,0.6465,0.6466,0,0,0.6659,0.6719,0.6655,0.6644,0.6669,0.6605,0.6598,0.6502,0.6519,0.6502,0.6494,0.6463,0.6425,0.6424,0.6464,0.6466,0,0,0,0.669,0.6724,0.6675,0.665,0.6627,0.6602,0.6593,0.6523,0.6502,0.6492,0.6462,0.6425,0.6423,0.6463,0.6465,0.6576,0,0,0,0.6693,0.6742,0.6678,0.6714,0.663,0.6574,0.6617,0.6509,0.6496,0.6462,0.6424,0.6423,0.6462,0.6464,0.657,0.6618,0,0,0,0.6729,0.6746,0.6737,0.6717,0.667,0.6574,0.6547,0.6504,0.6478,0.6426,0.6422,0.6461,0.6464,0.6565,0.6609,0.6647,0,0,0,0.6784,0.6834,0.674,0.6783,0.6671,0.6645,0.6547,0.6524,0.6492,0.6424,0.6462,0.6465,0.6564,0.6604,0.6642,0.6691,0.6717,0,0,0.6881,0.6848,0.6869,0.6781,0.6788,0.6658,0.6679,0.6591,0.6529,0.6489,0.6489,0.6572,0.6609,0.6646,0.6839,0.686,0,0,0,0.692,0.6936,0.6924,0.69,0.6836,0.6785,0.6688,0.6656,0.662,0.6522,0.6593,0.6613,0.6633,0.6653,0.6671,0.6684,0.6476,0.6476,0.6476,0.7141,0.7063,0.7092,0.7001,0.6977,0.6878,0.6851,0.6789,0.6713,0.6732,0.6719,0.6847,0.6873,0.6886,0.69,0.6738,0.6738,0.6738,0.6739,0.7276,0.7287,0.7188,0.7182,0.7098,0.709,0.6996,0.6943,0.6922,0.6849,0.6861,0.679,0.6912,0.692,0.6746,0.6745,0.6744,0.6743,0.6743,0.7413,0.7405,0.7367,0.7324,0.7298,0.7201,0.7187,0.7109,0.7035,0.7048,0.7027,0.7025,0.7014,0.7043,0.7044,0.7044,0.7045,0.7045,0.7045,0.7571,0.7525,0.7524,0.7463,0.7438,0.7394,0.7295,0.7266,0.7214,0.7158,0.7157,0.7081,0.6939,0.6905,0.7052,0.7051,0.705,0.7049,0.7049,0.7738,0.7688,0.7688,0.7663,0.7585,0.7566,0.7467,0.7416,0.738,0.7375,0.7296,0.7203,0.7163,0.7148,0.712,0.7313,0.7313,0.7313,0.7313,0.7855,0.7828,0.7811,0.7776,0.7732,0.7644,0.7644,0.7568,0.748,0.7453,0.7413,0.7369,0.7357,0.7323,0.7305,0.7277,0.7506,0.7506,0.7506,0.7953,0.7919,0.7936,0.7854,0.7787,0.7731,0.7728,0.769,0.7579,0.7512,0.743,0.7422,0.7349,0.7329,0.7262,0.7234,0.7182,0,0]}]]